Tracking 28920 objects as of 24-May-2024
HD Live streaming from Space Station
objects crossing your sky now

OBJECT B

Track OBJECT B now!
10-day predictions


NORAD ID: 55134
Int'l Code: 2023-003B
Perigee: 463.2 km
Apogee: 475.8 km
Inclination: 97.2 °
Period: 93.8 minutes
Semi major axis: 6840 km
RCS: Unknown
Launch date: January 9, 2023
Source: People's Republic of China (PRC)
Launch site: Jiuquan Satellite Launch Center, China (JSC)
Your satellite tracking list
Your tracking list is empty




NASA's NSSDC Master Catalog

Two Line Element Set (TLE):
1 55134U 23003B   24145.20969601  .00021685  00000-0  64914-3 0  9994
2 55134  97.2329 226.1633 0009210 314.3060  45.7428 15.34508231 76436
Source of the keplerian elements: AFSPC